Time,TemperatureF,DewpointF,PressureIn,WindDirection,WindDirectionDegrees,WindSpeedMPH,WindSpeedGustMPH,Humidity,HourlyPrecipIn,Conditions,Clouds,dailyrainin,SoftwareType,DateUTC
2013-02-16 00:21:00,57.0,11.0,30.06,East,80,34.0,42.0,16,0.00,,,-99.99,,2013-02-16 08:21:00,
2013-02-16 00:31:00,57.0,11.0,30.06,East,80,34.0,42.0,16,0.00,,,-99.99,,2013-02-16 08:31:00,
2013-02-16 00:41:00,57.0,11.0,30.06,East,80,34.0,42.0,16,0.00,,,-99.99,,2013-02-16 08:41:00,
2013-02-16 00:52:00,57.0,11.0,30.06,East,80,34.0,42.0,16,0.00,,,-99.99,,2013-02-16 08:52:00,
2013-02-16 12:21:00,66.0,12.0,30.03,East,80,7.0,30.0,12,0.00,,,-99.99,,2013-02-16 20:21:00,
2013-02-16 12:32:00,66.0,12.0,30.03,East,80,7.0,30.0,12,0.00,,,-99.99,,2013-02-16 20:32:00,
2013-02-16 12:42:00,66.0,12.0,30.03,East,80,7.0,30.0,12,0.00,,,-99.99,,2013-02-16 20:42:00,
2013-02-16 12:52:00,66.0,12.0,30.03,East,80,7.0,30.0,12,0.00,,,-99.99,,2013-02-16 20:52:00,
2013-02-16 13:21:00,67.0,11.0,30.00,East,90,13.0,27.0,11,0.00,,,-99.99,,2013-02-16 21:21:00,
2013-02-16 13:31:00,67.0,11.0,30.00,East,90,13.0,27.0,11,0.00,,,-99.99,,2013-02-16 21:31:00,
2013-02-16 13:41:00,67.0,11.0,30.00,East,90,13.0,27.0,11,0.00,,,-99.99,,2013-02-16 21:41:00,
2013-02-16 13:52:00,67.0,11.0,30.00,East,90,13.0,27.0,11,0.00,,,-99.99,,2013-02-16 21:52:00,
2013-02-16 14:21:00,68.0,12.0,29.97,East,80,8.0,24.0,11,0.00,,,-99.99,,2013-02-16 22:21:00,
2013-02-16 14:32:00,68.0,12.0,29.97,East,80,8.0,24.0,11,0.00,,,-99.99,,2013-02-16 22:32:00,
2013-02-16 14:42:00,68.0,12.0,29.97,East,80,8.0,24.0,11,0.00,,,-99.99,,2013-02-16 22:42:00,
2013-02-16 14:51:00,68.0,12.0,29.97,East,80,8.0,24.0,11,0.00,,,-99.99,,2013-02-16 22:51:00,
2013-02-16 15:21:00,68.0,7.0,29.95,East,80,16.0,19.0,9,0.00,,,-99.99,,2013-02-16 23:21:00,
2013-02-16 15:31:00,68.0,7.0,29.95,East,80,16.0,19.0,9,0.00,,,-99.99,,2013-02-16 23:31:00,
2013-02-16 15:42:00,68.0,7.0,29.95,East,80,16.0,19.0,9,0.00,,,-99.99,,2013-02-16 23:42:00,
2013-02-16 15:52:00,68.0,7.0,29.95,East,80,16.0,19.0,9,0.00,,,-99.99,,2013-02-16 23:52:00,
2013-02-16 16:21:00,67.0,9.0,29.93,East,90,7.0,19.0,10,0.00,,,-99.99,,2013-02-17 00:21:00,
2013-02-16 16:31:00,67.0,9.0,29.93,East,90,7.0,19.0,10,0.00,,,-99.99,,2013-02-17 00:31:00,
2013-02-16 16:41:00,67.0,9.0,29.93,East,90,7.0,19.0,10,0.00,,,-99.99,,2013-02-17 00:41:00,
2013-02-16 16:51:00,67.0,9.0,29.93,East,90,7.0,19.0,10,0.00,,,-99.99,,2013-02-17 00:51:00,
2013-02-16 17:21:00,65.0,26.0,29.93,West,280,2.0,8.0,23,0.00,,,-99.99,,2013-02-17 01:21:00,
2013-02-16 17:31:00,65.0,26.0,29.93,West,280,2.0,8.0,23,0.00,,,-99.99,,2013-02-17 01:31:00,
2013-02-16 17:52:00,65.0,26.0,29.93,West,280,2.0,8.0,23,0.00,,,-99.99,,2013-02-17 01:52:00,
2013-02-16 18:21:00,53.0,27.0,29.94,ENE,70,2.0,5.0,37,0.00,,,-99.99,,2013-02-17 02:21:00,
2013-02-16 18:31:00,53.0,27.0,29.94,ENE,70,2.0,5.0,37,0.00,,,-99.99,,2013-02-17 02:31:00,
2013-02-16 19:21:00,47.0,26.0,29.94,East,80,5.0,7.0,44,0.00,,,-99.99,,2013-02-17 03:21:00,
2013-02-16 19:31:00,47.0,26.0,29.94,East,80,5.0,7.0,44,0.00,,,-99.99,,2013-02-17 03:31:00,
2013-02-16 19:42:00,47.0,26.0,29.94,East,80,5.0,7.0,44,0.00,,,-99.99,,2013-02-17 03:42:00,
2013-02-16 19:51:00,47.0,26.0,29.94,East,80,5.0,7.0,44,0.00,,,-99.99,,2013-02-17 03:51:00,
2013-02-16 20:21:00,47.0,23.0,29.93,East,80,1.0,7.0,39,0.00,,,-99.99,,2013-02-17 04:21:00,
2013-02-16 20:31:00,47.0,23.0,29.93,East,80,1.0,7.0,39,0.00,,,-99.99,,2013-02-17 04:31:00,
2013-02-16 20:41:00,47.0,23.0,29.93,East,80,1.0,7.0,39,0.00,,,-99.99,,2013-02-17 04:41:00,
2013-02-16 20:51:00,47.0,23.0,29.93,East,80,1.0,7.0,39,0.00,,,-99.99,,2013-02-17 04:51:00,
2013-02-16 21:22:00,45.0,23.0,29.94,East,80,10.0,11.0,41,0.00,,,-99.99,,2013-02-17 05:22:00,
2013-02-16 21:32:00,45.0,23.0,29.94,East,80,10.0,11.0,41,0.00,,,-99.99,,2013-02-17 05:32:00,
2013-02-16 21:42:00,45.0,23.0,29.94,East,80,10.0,11.0,41,0.00,,,-99.99,,2013-02-17 05:42:00,
2013-02-16 21:52:00,45.0,23.0,29.94,East,80,10.0,11.0,41,0.00,,,-99.99,,2013-02-17 05:52:00,
2013-02-16 22:21:00,44.0,22.0,29.94,ENE,70,4.0,9.0,42,0.00,,,-99.99,,2013-02-17 06:21:00,
2013-02-16 22:31:00,44.0,22.0,29.94,ENE,70,4.0,9.0,42,0.00,,,-99.99,,2013-02-17 06:31:00,
2013-02-16 22:41:00,44.0,22.0,29.94,ENE,70,4.0,9.0,42,0.00,,,-99.99,,2013-02-17 06:41:00,
2013-02-16 22:51:00,44.0,22.0,29.94,ENE,70,4.0,9.0,42,0.00,,,-99.99,,2013-02-17 06:51:00,
2013-02-16 23:21:00,43.0,22.0,29.93,ENE,70,7.0,10.0,42,0.00,,,-99.99,,2013-02-17 07:21:00,
2013-02-16 23:31:00,43.0,22.0,29.93,ENE,70,7.0,10.0,42,0.00,,,-99.99,,2013-02-17 07:31:00,
2013-02-16 23:41:00,43.0,22.0,29.93,ENE,70,7.0,10.0,42,0.00,,,-99.99,,2013-02-17 07:41:00,
2013-02-16 23:51:00,43.0,22.0,29.93,ENE,70,7.0,10.0,42,0.00,,,-99.99,,2013-02-17 07:51:00,